EGCK

Details ICAO EGCK
Name Caernarfon
Region United Kingdom
Timezone Europe/London (UTC+0.0)
Plans Departing 45
Arriving 46
Stats Elevation 13 ft / 4 m (AMSL)
Location 53.103100° -4.338720°
Runways 2
Magnetic Variation 2.034° W
Sunrise 2019-01-22 08:17:33 UTC / 2019-01-22 08:17:33 Local
Sunset 2019-01-22 16:42:21 UTC / 2019-01-22 16:42:21 Local
Advertisement - Login to hide

Runways

ID Width Length Bearing (true/mag) Surface Threshold Overrun Markings Lighting
02 75 ft / 23 m 3,500 ft / 1,067 m 13.18° / 15.21° ASPHALT 253 ft / 77 m 0 ft / 0 m VISUAL CENTERLINE EDGE THRESHOLD
07 75 ft / 23 m 2,995 ft / 913 m 70.77° / 72.81° ASPHALT 151 ft / 46 m 0 ft / 0 m VISUAL CENTERLINE EDGE THRESHOLD
20 75 ft / 23 m 3,500 ft / 1,067 m 193.18° / 195.22° ASPHALT 0 ft / 0 m 0 ft / 0 m VISUAL CENTERLINE EDGE THRESHOLD
25 75 ft / 23 m 2,995 ft / 913 m 250.78° / 252.82° ASPHALT 266 ft / 81 m 0 ft / 0 m VISUAL CENTERLINE EDGE THRESHOLD

Map

Weather


0- 5 10 15 20 25 30 35+ Temperature / °C

Clouds and Precipitation
Forecast for 2019-01-22 00:00 UTC. Updated 3 hours ago

Ground ~20,000 ft ~40,000 ft Winds

METAR

EGCK 220020Z AUTO 29016KT 9999 FEW020/// 05/02 Q1005

TAF

Not found

Frequencies

Tower 122.25 MHz Caernarfon Radio
Warning: Do not use this data for real-world aviation or navigation. No guarantee of current accuracy is given.